This is the latest recevied weather packets stored in our database for station/object IT9RID. If no packets are shown the sender has not sent any weather packets the latest 10 day(s).
| Time | Temp. | Humidity | Pressure | Rain* | Wind** | Luminosity | Snow |
|---|---|---|---|---|---|---|---|
| 1777196458 | 18.89° C | 56% | 1019.2 hPa | 0 mm | - | - | - |
| 1777195858 | 18.89° C | 54% | 1019.2 hPa | 0 mm | - | - | - |
| 1777195258 | 18.89° C | 55% | 1019.1 hPa | 0 mm | - | - | - |
| 1777194657 | 18.89° C | 58% | 1019.2 hPa | 0 mm | - | - | - |
| 1777194057 | 17.78° C | 60% | 1019.2 hPa | 0 mm | - | - | - |
| 1777193457 | 18.33° C | 61% | 1019.2 hPa | 0 mm | - | - | - |
| 1777192857 | 17.78° C | 61% | 1019.1 hPa | 0 mm | - | - | - |
| 1777192257 | 17.78° C | 61% | 1019.1 hPa | 0 mm | - | - | - |
| 1777191657 | 17.78° C | 61% | 1019.1 hPa | 0 mm | - | - | - |
| 1777191056 | 17.78° C | 57% | 1019.2 hPa | 0 mm | - | - | - |
| 1777190457 | 17.78° C | 58% | 1019.1 hPa | 0 mm | - | - | - |
| 1777189856 | 17.78° C | 52% | 1019.2 hPa | 0 mm | - | - | - |
| 1777189256 | 17.78° C | 48% | 1019 hPa | 0 mm | - | - | - |
| 1777188656 | 18.33° C | 41% | 1018.8 hPa | 0 mm | - | - | - |
| 1777188056 | 17.78° C | 41% | 1018.8 hPa | 0 mm | - | - | - |
| 1777187456 | 17.78° C | 42% | 1018.7 hPa | 0 mm | - | - | - |
| 1777186855 | 18.33° C | 45% | 1018.7 hPa | 0 mm | - | - | - |
| 1777186255 | 17.22° C | 47% | 1018.6 hPa | 0 mm | - | - | - |
| 1777185655 | 16.11° C | 49% | 1018.7 hPa | 0 mm | - | - | - |
| 1777185055 | 15.56° C | 52% | 1018.7 hPa | 0 mm | - | - | - |
| 1777184455 | 15° C | 52% | 1018.6 hPa | 0 mm | - | - | - |
| 1777183855 | 14.44° C | 53% | 1018.5 hPa | 0 mm | - | - | - |
| 1777183255 | 13.89° C | 55% | 1018.5 hPa | 0 mm | - | - | - |
| 1777182654 | 13.89° C | 56% | 1018.3 hPa | 0 mm | - | - | - |
| 1777182054 | 13.33° C | 57% | 1018.2 hPa | 0 mm | - | - | - |
* Rain latest hour (hover to see other rain measurements)
** Current wind speed in m/s (hover to see current wind gust speed)